Time,TemperatureF,DewpointF,PressureIn,WindDirection,WindDirectionDegrees,WindSpeedMPH,WindSpeedGustMPH,Humidity,HourlyPrecipIn,Conditions,Clouds,dailyrainin,SoftwareType,DateUTC
2013-03-03 00:02:00,21.0,-99.9,-100.00,West,261,13.0,-999.0,0,-99.99,,,-99.99,,2013-03-03 06:02:00,
2013-03-03 00:11:00,21.0,-99.9,-100.00,West,266,10.0,-999.0,0,-99.99,,,-99.99,,2013-03-03 06:11:00,
2013-03-03 00:22:00,21.0,-99.9,-100.00,SW,223,8.0,-999.0,0,-99.99,,,-99.99,,2013-03-03 06:22:00,
2013-03-03 00:32:00,21.0,-99.9,-100.00,West,270,8.0,-999.0,0,-99.99,,,-99.99,,2013-03-03 06:32:00,
2013-03-03 00:42:00,21.0,-99.9,-100.00,West,270,8.0,-999.0,0,-99.99,,,-99.99,,2013-03-03 06:42:00,
2013-03-03 00:52:00,20.0,-99.9,-100.00,South,189,9.0,-999.0,0,-99.99,,,-99.99,,2013-03-03 06:52:00,
2013-03-03 01:01:00,20.0,-99.9,-100.00,South,189,9.0,-999.0,0,-99.99,,,-99.99,,2013-03-03 07:01:00,
2013-03-03 01:11:00,20.0,-99.9,-100.00,South,175,9.0,-999.0,0,-99.99,,,-99.99,,2013-03-03 07:11:00,
2013-03-03 01:22:00,20.0,-99.9,-100.00,West,279,10.0,-999.0,0,-99.99,,,-99.99,,2013-03-03 07:22:00,
2013-03-03 01:32:00,20.0,-99.9,-100.00,West,264,8.0,-999.0,0,-99.99,,,-99.99,,2013-03-03 07:32:00,
2013-03-03 01:42:00,20.0,-99.9,-100.00,WSW,247,11.0,-999.0,0,-99.99,,,-99.99,,2013-03-03 07:42:00,
2013-03-03 01:52:00,20.0,-99.9,-100.00,WSW,244,9.0,-999.0,0,-99.99,,,-99.99,,2013-03-03 07:52:00,
2013-03-03 02:01:00,20.0,-99.9,-100.00,NW,316,5.0,-999.0,0,-99.99,,,-99.99,,2013-03-03 08:01:00,
2013-03-03 02:11:00,20.0,-99.9,-100.00,WNW,290,6.0,-999.0,0,-99.99,,,-99.99,,2013-03-03 08:11:00,
2013-03-03 02:21:00,20.0,-99.9,-100.00,WSW,255,9.0,-999.0,0,-99.99,,,-99.99,,2013-03-03 08:21:00,
2013-03-03 02:32:00,20.0,-99.9,-100.00,NW,306,11.0,-999.0,0,-99.99,,,-99.99,,2013-03-03 08:32:00,
2013-03-03 02:42:00,20.0,-99.9,-100.00,NW,325,8.0,-999.0,0,-99.99,,,-99.99,,2013-03-03 08:42:00,
2013-03-03 02:54:00,20.0,-99.9,-100.00,WNW,283,10.0,-999.0,0,-99.99,,,-99.99,,2013-03-03 08:54:00,
2013-03-03 03:02:00,20.0,-99.9,-100.00,WNW,283,10.0,-999.0,0,-99.99,,,-99.99,,2013-03-03 09:02:00,
2013-03-03 03:12:00,20.0,-99.9,-100.00,West,263,11.0,-999.0,0,-99.99,,,-99.99,,2013-03-03 09:12:00,
2013-03-03 03:22:00,20.0,-99.9,-100.00,WNW,288,6.0,-999.0,0,-99.99,,,-99.99,,2013-03-03 09:22:00,
2013-03-03 03:32:00,20.0,-99.9,-100.00,West,269,8.0,-999.0,0,-99.99,,,-99.99,,2013-03-03 09:32:00,
2013-03-03 03:42:00,20.0,-99.9,-100.00,West,261,6.0,-999.0,0,-99.99,,,-99.99,,2013-03-03 09:42:00,
2013-03-03 03:52:00,20.0,-99.9,-100.00,NW,324,9.0,-999.0,0,-99.99,,,-99.99,,2013-03-03 09:52:00,
2013-03-03 04:02:00,20.0,-99.9,-100.00,WSW,243,13.0,-999.0,0,-99.99,,,-99.99,,2013-03-03 10:02:00,
2013-03-03 04:12:00,20.0,-99.9,-100.00,SW,232,12.0,-999.0,0,-99.99,,,-99.99,,2013-03-03 10:12:00,
2013-03-03 04:22:00,20.0,-99.9,-100.00,WSW,244,11.0,-999.0,0,-99.99,,,-99.99,,2013-03-03 10:22:00,
2013-03-03 04:32:00,20.0,-99.9,-100.00,West,281,10.0,-999.0,0,-99.99,,,-99.99,,2013-03-03 10:32:00,
2013-03-03 04:42:00,20.0,-99.9,-100.00,SSW,205,7.0,-999.0,0,-99.99,,,-99.99,,2013-03-03 10:42:00,
2013-03-03 04:52:00,20.0,-99.9,-100.00,WSW,258,9.0,-999.0,0,-99.99,,,-99.99,,2013-03-03 10:52:00,
2013-03-03 05:02:00,20.0,-99.9,-100.00,WSW,258,9.0,-999.0,0,-99.99,,,-99.99,,2013-03-03 11:02:00,
2013-03-03 05:11:00,20.0,-99.9,-100.00,WSW,238,12.0,-999.0,0,-99.99,,,-99.99,,2013-03-03 11:11:00,
2013-03-03 05:22:00,20.0,-99.9,-100.00,NW,321,12.0,-999.0,0,-99.99,,,-99.99,,2013-03-03 11:22:00,
2013-03-03 05:32:00,20.0,-99.9,-100.00,WSW,243,12.0,-999.0,0,-99.99,,,-99.99,,2013-03-03 11:32:00,
2013-03-03 05:42:00,20.0,-99.9,-100.00,WNW,286,10.0,-999.0,0,-99.99,,,-99.99,,2013-03-03 11:42:00,
2013-03-03 05:53:00,20.0,-99.9,-100.00,NNW,341,8.0,-999.0,0,-99.99,,,-99.99,,2013-03-03 11:53:00,
2013-03-03 06:02:00,20.0,-99.9,-100.00,NNW,341,8.0,-999.0,0,-99.99,,,-99.99,,2013-03-03 12:02:00,
2013-03-03 06:11:00,20.0,-99.9,-100.00,WSW,239,8.0,-999.0,0,-99.99,,,-99.99,,2013-03-03 12:11:00,
2013-03-03 06:22:00,20.0,-99.9,-100.00,WNW,290,13.0,-999.0,0,-99.99,,,-99.99,,2013-03-03 12:22:00,
2013-03-03 06:32:00,20.0,-99.9,-100.00,SSW,208,9.0,-999.0,0,-99.99,,,-99.99,,2013-03-03 12:32:00,
2013-03-03 06:43:00,20.0,-99.9,-100.00,SW,221,9.0,-999.0,0,-99.99,,,-99.99,,2013-03-03 12:43:00,
2013-03-03 06:53:00,20.0,-99.9,-100.00,SW,232,8.0,-999.0,0,-99.99,,,-99.99,,2013-03-03 12:53:00,
2013-03-03 07:02:00,21.0,-99.9,-100.00,WSW,257,9.0,-999.0,0,-99.99,,,-99.99,,2013-03-03 13:02:00,
2013-03-03 07:11:00,21.0,-99.9,-100.00,SSW,211,10.0,-999.0,0,-99.99,,,-99.99,,2013-03-03 13:11:00,
2013-03-03 07:22:00,21.0,-99.9,-100.00,NW,324,5.0,-999.0,0,-99.99,,,-99.99,,2013-03-03 13:22:00,
2013-03-03 07:32:00,21.0,-99.9,-100.00,WSW,253,10.0,-999.0,0,-99.99,,,-99.99,,2013-03-03 13:32:00,
2013-03-03 07:42:00,21.0,-99.9,-100.00,SSW,208,10.0,-999.0,0,-99.99,,,-99.99,,2013-03-03 13:42:00,
2013-03-03 07:52:00,21.0,-99.9,-100.00,West,262,10.0,-999.0,0,-99.99,,,-99.99,,2013-03-03 13:52:00,
2013-03-03 08:02:00,21.0,-99.9,-100.00,SSW,202,7.0,-999.0,0,-99.99,,,-99.99,,2013-03-03 14:02:00,
2013-03-03 08:11:00,22.0,-99.9,-100.00,West,270,13.0,-999.0,0,-99.99,,,-99.99,,2013-03-03 14:11:00,
2013-03-03 08:22:00,22.0,-99.9,-100.00,West,264,9.0,-999.0,0,-99.99,,,-99.99,,2013-03-03 14:22:00,
2013-03-03 08:32:00,22.0,-99.9,-100.00,SW,228,10.0,-999.0,0,-99.99,,,-99.99,,2013-03-03 14:32:00,
2013-03-03 08:42:00,22.0,-99.9,-100.00,WSW,245,11.0,-999.0,0,-99.99,,,-99.99,,2013-03-03 14:42:00,
2013-03-03 08:52:00,23.0,-99.9,-100.00,WNW,287,10.0,-999.0,0,-99.99,,,-99.99,,2013-03-03 14:52:00,
2013-03-03 09:02:00,23.0,-99.9,-100.00,NW,316,11.0,-999.0,0,-99.99,,,-99.99,,2013-03-03 15:02:00,
2013-03-03 09:11:00,23.0,-99.9,-100.00,WSW,241,7.0,-999.0,0,-99.99,,,-99.99,,2013-03-03 15:11:00,
2013-03-03 09:22:00,23.0,-99.9,-100.00,WSW,243,16.0,-999.0,0,-99.99,,,-99.99,,2013-03-03 15:22:00,
2013-03-03 09:33:00,23.0,-99.9,-100.00,West,261,9.0,-999.0,0,-99.99,,,-99.99,,2013-03-03 15:33:00,
2013-03-03 09:42:00,24.0,-99.9,-100.00,SSW,212,14.0,-999.0,0,-99.99,,,-99.99,,2013-03-03 15:42:00,
2013-03-03 09:52:00,24.0,-99.9,-100.00,SW,229,12.0,-999.0,0,-99.99,,,-99.99,,2013-03-03 15:52:00,
2013-03-03 10:02:00,24.0,-99.9,-100.00,WNW,296,13.0,-999.0,0,-99.99,,,-99.99,,2013-03-03 16:02:00,
2013-03-03 10:12:00,25.0,-99.9,-100.00,WSW,244,13.0,-999.0,0,-99.99,,,-99.99,,2013-03-03 16:12:00,
2013-03-03 10:22:00,25.0,-99.9,-100.00,WSW,239,11.0,-999.0,0,-99.99,,,-99.99,,2013-03-03 16:22:00,
2013-03-03 10:32:00,25.0,-99.9,-100.00,SW,214,20.0,-999.0,0,-99.99,,,-99.99,,2013-03-03 16:32:00,
2013-03-03 10:42:00,26.0,-99.9,-100.00,SSW,211,15.0,-999.0,0,-99.99,,,-99.99,,2013-03-03 16:42:00,
2013-03-03 10:52:00,26.0,-99.9,-100.00,SSW,201,17.0,-999.0,0,-99.99,,,-99.99,,2013-03-03 16:52:00,
2013-03-03 11:02:00,26.0,-99.9,-100.00,WNW,294,20.0,-999.0,0,-99.99,,,-99.99,,2013-03-03 17:02:00,
2013-03-03 11:12:00,26.0,-99.9,-100.00,WSW,241,20.0,-999.0,0,-99.99,,,-99.99,,2013-03-03 17:12:00,
2013-03-03 11:22:00,27.0,-99.9,-100.00,WSW,248,18.0,-999.0,0,-99.99,,,-99.99,,2013-03-03 17:22:00,
2013-03-03 11:32:00,27.0,-99.9,-100.00,WNW,284,19.0,-999.0,0,-99.99,,,-99.99,,2013-03-03 17:32:00,
2013-03-03 11:42:00,28.0,-99.9,-100.00,West,280,16.0,-999.0,0,-99.99,,,-99.99,,2013-03-03 17:42:00,
2013-03-03 11:52:00,28.0,-99.9,-100.00,West,266,18.0,-999.0,0,-99.99,,,-99.99,,2013-03-03 17:52:00,
2013-03-03 12:02:00,29.0,-99.9,-100.00,WNW,289,18.0,-999.0,0,-99.99,,,-99.99,,2013-03-03 18:02:00,
2013-03-03 12:11:00,29.0,-99.9,-100.00,West,272,19.0,-999.0,0,-99.99,,,-99.99,,2013-03-03 18:11:00,
2013-03-03 12:22:00,30.0,-99.9,-100.00,WSW,244,14.0,-999.0,0,-99.99,,,-99.99,,2013-03-03 18:22:00,
2013-03-03 12:32:00,30.0,-99.9,-100.00,WSW,244,20.0,-999.0,0,-99.99,,,-99.99,,2013-03-03 18:32:00,
2013-03-03 12:42:00,30.0,-99.9,-100.00,WSW,255,19.0,-999.0,0,-99.99,,,-99.99,,2013-03-03 18:42:00,
2013-03-03 12:53:00,31.0,-99.9,-100.00,WSW,242,15.0,-999.0,0,-99.99,,,-99.99,,2013-03-03 18:53:00,
2013-03-03 13:02:00,31.0,-99.9,-100.00,WSW,244,17.0,-999.0,0,-99.99,,,-99.99,,2013-03-03 19:02:00,
2013-03-03 13:11:00,31.0,-99.9,-100.00,WSW,244,17.0,-999.0,0,-99.99,,,-99.99,,2013-03-03 19:11:00,
2013-03-03 13:22:00,31.0,-99.9,-100.00,WSW,250,25.0,-999.0,0,-99.99,,,-99.99,,2013-03-03 19:22:00,
2013-03-03 13:32:00,32.0,-99.9,-100.00,SW,222,20.0,-999.0,0,-99.99,,,-99.99,,2013-03-03 19:32:00,
2013-03-03 13:42:00,32.0,-99.9,-100.00,SW,227,17.0,-999.0,0,-99.99,,,-99.99,,2013-03-03 19:42:00,
2013-03-03 13:52:00,32.0,-99.9,-100.00,WSW,244,19.0,-999.0,0,-99.99,,,-99.99,,2013-03-03 19:52:00,
2013-03-03 14:02:00,32.0,-99.9,-100.00,WNW,283,14.0,-999.0,0,-99.99,,,-99.99,,2013-03-03 20:02:00,
2013-03-03 14:12:00,32.0,-99.9,-100.00,WSW,245,21.0,-999.0,0,-99.99,,,-99.99,,2013-03-03 20:12:00,
2013-03-03 14:22:00,32.0,-99.9,-100.00,WSW,246,17.0,-999.0,0,-99.99,,,-99.99,,2013-03-03 20:22:00,
2013-03-03 14:32:00,32.0,-99.9,-100.00,SW,226,23.0,-999.0,0,-99.99,,,-99.99,,2013-03-03 20:32:00,
2013-03-03 14:43:00,32.0,-99.9,-100.00,South,181,19.0,-999.0,0,-99.99,,,-99.99,,2013-03-03 20:43:00,
2013-03-03 14:53:00,32.0,-99.9,-100.00,WSW,247,20.0,-999.0,0,-99.99,,,-99.99,,2013-03-03 20:53:00,
2013-03-03 15:02:00,32.0,-99.9,-100.00,SW,224,20.0,-999.0,0,-99.99,,,-99.99,,2013-03-03 21:02:00,
2013-03-03 15:12:00,33.0,-99.9,-100.00,SSW,200,15.0,-999.0,0,-99.99,,,-99.99,,2013-03-03 21:12:00,
2013-03-03 15:22:00,32.0,-99.9,-100.00,WNW,282,16.0,-999.0,0,-99.99,,,-99.99,,2013-03-03 21:22:00,
2013-03-03 15:32:00,33.0,-99.9,-100.00,WSW,254,17.0,-999.0,0,-99.99,,,-99.99,,2013-03-03 21:32:00,
2013-03-03 15:42:00,33.0,-99.9,-100.00,SW,217,25.0,-999.0,0,-99.99,,,-99.99,,2013-03-03 21:42:00,
2013-03-03 15:52:00,33.0,-99.9,-100.00,WSW,251,22.0,-999.0,0,-99.99,,,-99.99,,2013-03-03 21:52:00,
2013-03-03 16:02:00,33.0,-99.9,-100.00,WSW,251,22.0,-999.0,0,-99.99,,,-99.99,,2013-03-03 22:02:00,
2013-03-03 16:11:00,33.0,-99.9,-100.00,SW,230,20.0,-999.0,0,-99.99,,,-99.99,,2013-03-03 22:11:00,
2013-03-03 16:22:00,33.0,-99.9,-100.00,SW,232,20.0,-999.0,0,-99.99,,,-99.99,,2013-03-03 22:22:00,
2013-03-03 16:32:00,34.0,-99.9,-100.00,WSW,256,20.0,-999.0,0,-99.99,,,-99.99,,2013-03-03 22:32:00,
2013-03-03 16:42:00,34.0,-99.9,-100.00,WSW,256,20.0,-999.0,0,-99.99,,,-99.99,,2013-03-03 22:42:00,
2013-03-03 16:53:00,34.0,-99.9,-100.00,South,191,30.0,-999.0,0,-99.99,,,-99.99,,2013-03-03 22:53:00,
2013-03-03 17:02:00,33.0,-99.9,-100.00,SSW,204,23.0,-999.0,0,-99.99,,,-99.99,,2013-03-03 23:02:00,
2013-03-03 17:12:00,33.0,-99.9,-100.00,West,270,25.0,-999.0,0,-99.99,,,-99.99,,2013-03-03 23:12:00,
2013-03-03 17:22:00,33.0,-99.9,-100.00,WSW,243,26.0,-999.0,0,-99.99,,,-99.99,,2013-03-03 23:22:00,
2013-03-03 17:32:00,33.0,-99.9,-100.00,WSW,237,21.0,-999.0,0,-99.99,,,-99.99,,2013-03-03 23:32:00,
2013-03-03 17:42:00,33.0,-99.9,-100.00,SSW,213,19.0,-999.0,0,-99.99,,,-99.99,,2013-03-03 23:42:00,
2013-03-03 17:52:00,33.0,-99.9,-100.00,WSW,243,16.0,-999.0,0,-99.99,,,-99.99,,2013-03-03 23:52:00,
2013-03-03 18:02:00,33.0,-99.9,-100.00,SW,216,7.0,-999.0,0,-99.99,,,-99.99,,2013-03-04 00:02:00,
2013-03-03 18:11:00,32.0,-99.9,-100.00,SW,233,17.0,-999.0,0,-99.99,,,-99.99,,2013-03-04 00:11:00,
2013-03-03 18:22:00,32.0,-99.9,-100.00,South,190,16.0,-999.0,0,-99.99,,,-99.99,,2013-03-04 00:22:00,
2013-03-03 18:32:00,32.0,-99.9,-100.00,SSW,209,19.0,-999.0,0,-99.99,,,-99.99,,2013-03-04 00:32:00,
2013-03-03 18:42:00,32.0,-99.9,-100.00,SSW,209,19.0,-999.0,0,-99.99,,,-99.99,,2013-03-04 00:42:00,
2013-03-03 18:52:00,32.0,-99.9,-100.00,SSW,211,18.0,-999.0,0,-99.99,,,-99.99,,2013-03-04 00:52:00,
2013-03-03 19:02:00,32.0,-99.9,-100.00,SSW,205,20.0,-999.0,0,-99.99,,,-99.99,,2013-03-04 01:02:00,
2013-03-03 19:12:00,32.0,-99.9,-100.00,SSE,167,25.0,-999.0,0,-99.99,,,-99.99,,2013-03-04 01:12:00,
2013-03-03 19:22:00,31.0,-99.9,-100.00,SSE,163,17.0,-999.0,0,-99.99,,,-99.99,,2013-03-04 01:22:00,
2013-03-03 19:32:00,31.0,-99.9,-100.00,SW,235,19.0,-999.0,0,-99.99,,,-99.99,,2013-03-04 01:32:00,
2013-03-03 19:42:00,31.0,-99.9,-100.00,SW,217,19.0,-999.0,0,-99.99,,,-99.99,,2013-03-04 01:42:00,
2013-03-03 19:52:00,31.0,-99.9,-100.00,SW,230,22.0,-999.0,0,-99.99,,,-99.99,,2013-03-04 01:52:00,
2013-03-03 20:02:00,31.0,-99.9,-100.00,SW,230,22.0,-999.0,0,-99.99,,,-99.99,,2013-03-04 02:02:00,
2013-03-03 20:11:00,31.0,-99.9,-100.00,WSW,240,16.0,-999.0,0,-99.99,,,-99.99,,2013-03-04 02:11:00,
2013-03-03 20:22:00,31.0,-99.9,-100.00,SW,233,22.0,-999.0,0,-99.99,,,-99.99,,2013-03-04 02:22:00,
2013-03-03 20:32:00,31.0,-99.9,-100.00,SSW,199,26.0,-999.0,0,-99.99,,,-99.99,,2013-03-04 02:32:00,
2013-03-03 20:42:00,31.0,-99.9,-100.00,WSW,239,12.0,-999.0,0,-99.99,,,-99.99,,2013-03-04 02:42:00,
2013-03-03 20:53:00,31.0,-99.9,-100.00,SW,217,14.0,-999.0,0,-99.99,,,-99.99,,2013-03-04 02:53:00,
2013-03-03 21:02:00,31.0,-99.9,-100.00,SW,217,14.0,-999.0,0,-99.99,,,-99.99,,2013-03-04 03:02:00,
2013-03-03 21:12:00,31.0,-99.9,-100.00,SSW,197,24.0,-999.0,0,-99.99,,,-99.99,,2013-03-04 03:12:00,
2013-03-03 21:22:00,30.0,-99.9,-100.00,SSW,196,20.0,-999.0,0,-99.99,,,-99.99,,2013-03-04 03:22:00,
2013-03-03 21:32:00,30.0,-99.9,-100.00,West,261,18.0,-999.0,0,-99.99,,,-99.99,,2013-03-04 03:32:00,
2013-03-03 21:42:00,30.0,-99.9,-100.00,SSE,159,27.0,-999.0,0,-99.99,,,-99.99,,2013-03-04 03:42:00,
2013-03-03 21:53:00,30.0,-99.9,-100.00,South,177,21.0,-999.0,0,-99.99,,,-99.99,,2013-03-04 03:53:00,
2013-03-03 22:02:00,30.0,-99.9,-100.00,SSW,211,15.0,-999.0,0,-99.99,,,-99.99,,2013-03-04 04:02:00,
2013-03-03 22:11:00,30.0,-99.9,-100.00,SSW,192,26.0,-999.0,0,-99.99,,,-99.99,,2013-03-04 04:11:00,
2013-03-03 22:22:00,29.0,-99.9,-100.00,South,175,25.0,-999.0,0,-99.99,,,-99.99,,2013-03-04 04:22:00,
2013-03-03 22:32:00,30.0,-99.9,-100.00,South,177,21.0,-999.0,0,-99.99,,,-99.99,,2013-03-04 04:32:00,
2013-03-03 22:42:00,29.0,-99.9,-100.00,SW,218,26.0,-999.0,0,-99.99,,,-99.99,,2013-03-04 04:42:00,
2013-03-03 22:52:00,29.0,-99.9,-100.00,South,174,23.0,-999.0,0,-99.99,,,-99.99,,2013-03-04 04:52:00,
2013-03-03 23:02:00,29.0,-99.9,-100.00,SSW,212,17.0,-999.0,0,-99.99,,,-99.99,,2013-03-04 05:02:00,
2013-03-03 23:11:00,29.0,-99.9,-100.00,SW,219,23.0,-999.0,0,-99.99,,,-99.99,,2013-03-04 05:11:00,
2013-03-03 23:22:00,29.0,-99.9,-100.00,South,184,17.0,-999.0,0,-99.99,,,-99.99,,2013-03-04 05:22:00,
2013-03-03 23:32:00,29.0,-99.9,-100.00,SSW,200,18.0,-999.0,0,-99.99,,,-99.99,,2013-03-04 05:32:00,
2013-03-03 23:43:00,29.0,-99.9,-100.00,SSE,149,17.0,-999.0,0,-99.99,,,-99.99,,2013-03-04 05:43:00,
2013-03-03 23:52:00,29.0,-99.9,-100.00,South,182,26.0,-999.0,0,-99.99,,,-99.99,,2013-03-04 05:52:00,